Hourly Data Report for September 02, 2017

All times are specified in Local Standard Time (LST). Add 1 hour to adjust for Daylight Saving Time where and when it is observed.

POND INLET A
NUNAVUT

72°41'22.000" N
77°58'08.000" W
61.60 m
2403206
71095
YIO

Download Data

Hourly Data (September 2017)
Hourly Data Report for September 2, 2017
Temp Definition
°C
Dew Point Temp Definition
°C
Rel Hum Definition
%
Wind Dir Definition
10's deg

Wind Spd Definition
km/h
Visibility Definition
km
Stn Press Definition
kPa
Hmdx Definition


Wind Chill Definition


Weather Definition


TIME
00:00 Legend Double Dagger 0.7 -1.2 87 16 26 16.1 99.86     LegendNANA
01:00 Legend Double Dagger 1.4 -0.5 87 17 26 16.1 99.91     LegendNANA
02:00 Legend Double Dagger 1.0 -1.1 86 17 26 16.1 99.94     LegendNANA
03:00 Legend Double Dagger 1.5 -0.9 84 16 22 16.1 99.99     LegendNANA
04:00 Legend Double Dagger 1.4 -0.7 86 17 17 16.1 100.03     LegendNANA
05:00 Legend Double Dagger 0.9 -0.9 88 16 17 16.1 100.06     LegendNANA
06:00 Legend Double Dagger 1.6 -0.3 87 19 17 16.1 100.10     LegendNANA
07:00 Legend Double Dagger 1.6 -0.5 86 19 17 16.1 100.12     LegendNANA
08:00 Legend Double Dagger 1.5 -0.6 86 20 21 6.4 100.14     Snow
09:00 Legend Double Dagger 2.0 0.2 88 20 15 16.1 100.17     LegendNANA
10:00 Legend Double Dagger 2.1 -1.2 79 21 18 16.1 100.19     LegendNANA
11:00 Legend Double Dagger 2.8 -1.5 73 24 17 16.1 100.20     LegendNANA
12:00 Legend Double Dagger 2.9 -1.7 72 24 17 16.1 100.21     LegendNANA
13:00 Legend Double Dagger 3.7 -0.9 72 24 26 16.1 100.19     LegendNANA
14:00 Legend Double Dagger 3.3 -1.1 73 24 30 16.1 100.22     LegendNANA
15:00 Legend Double Dagger 3.2 -2.2 68 24 22 16.1 100.23     LegendNANA
16:00 Legend Double Dagger 3.4 -2.2 67 23 21 16.1 100.26     LegendNANA
17:00 Legend Double Dagger 3.3 -1.9 69 23 18 16.1 100.26     LegendNANA
18:00 Legend Double Dagger 3.0 -1.9 70 22 18 16.1 100.28     LegendNANA
19:00 Legend Double Dagger 2.2 -2.4 72 20 13 16.1 100.30     LegendNANA
20:00 Legend Double Dagger -0.3 -4.0 76 18 15 16.1 100.31   -5 LegendNANA
21:00 Legend Double Dagger -1.2 -3.7 83 16 15 16.1 100.30   -6 LegendNANA
22:00 Legend Double Dagger -1.7 -3.6 87 16 17 16.1 100.30   -7 LegendNANA
23:00 Legend Double Dagger -1.2 -3.3 86 17 17 16.1 100.30   -6 LegendNANA

Notes on Data Quality.

Legend

  • E = Estimated
  • M = Missing
  • NA = Not Available
  • ‡ = Partner data that is not subject to review by the National Climate Archives
Date modified: